| time (UTC) | temp F | wind direction | speed MPH | gust MPH | rain 1hr in | rain 24hr in | rain mn in | humidity % | barometer mb |
| 20260903043247 | 67 | 360 | 1.0 | 3.0 | 0.00 | 0.00 | 0.00 | 49 | 1009.2 |
| 20260903042235 | 67 | 360 | 1.0 | 3.0 | 0.00 | 0.00 | 0.00 | 49 | 1008.7 |
| 20260903041240 | 67 | 360 | 0.0 | 3.0 | 0.00 | 0.00 | 0.00 | 49 | 1008.7 |
| 20260903040250 | 68 | 360 | 1.0 | 3.0 | 0.00 | 0.00 | 0.00 | 49 | 1008.7 |
| 20260903035251 | 68 | 360 | 0.0 | 0.0 | 0.00 | 0.00 | 0.00 | 48 | 1008.7 |
| 20260903034247 | 69 | 360 | 1.0 | 6.0 | 0.00 | 0.00 | 0.00 | 47 | 1008.7 |
| 20260903032310 | 70 | 330 | 0.0 | 5.0 | 0.00 | 0.00 | 0.00 | 45 | 1008.2 |
| 20260903031312 | 71 | 334 | 3.0 | 6.0 | 0.00 | 0.00 | 0.00 | 42 | 1008.4 |
| 20260903030312 | 72 | 284 | 4.0 | 9.0 | 0.00 | 0.00 | 0.00 | 39 | 1008.4 |
| 20260903025239 | 74 | 19 | 8.0 | 17.0 | 0.00 | 0.00 | 0.00 | 35 | 1008.1 |
| 20260903024246 | 75 | 360 | 5.0 | 13.0 | 0.00 | 0.00 | 0.00 | 32 | 1008.5 |
| 20260903023255 | 75 | 304 | 7.0 | 10.0 | 0.00 | 0.00 | 0.00 | 30 | 1008.5 |
| 20260903022259 | 75 | 306 | 5.0 | 9.0 | 0.00 | 0.00 | 0.00 | 30 | 1007.5 |
| 20260903021244 | 76 | 360 | 5.0 | 11.0 | 0.00 | 0.00 | 0.00 | 29 | 1006.9 |
| 20260903020233 | 77 | 360 | 7.0 | 12.0 | 0.00 | 0.00 | 0.00 | 27 | 1006.9 |
| 20260903015240 | 77 | 5 | 7.0 | 14.0 | 0.00 | 0.00 | 0.00 | 26 | 1006.8 |
| 20260903014251 | 78 | 5 | 8.0 | 12.0 | 0.00 | 0.00 | 0.00 | 26 | 1006.6 |
| 20260903013311 | 79 | 355 | 7.0 | 20.0 | 0.00 | 0.00 | 0.00 | 25 | 1006.6 |
| 20260903012252 | 80 | 360 | 5.0 | 12.0 | 0.00 | 0.00 | 0.00 | 27 | 1006.2 |
| 20260903011256 | 80 | 360 | 5.0 | 11.0 | 0.00 | 0.00 | 0.00 | 27 | 1006.2 |
| 20260903010304 | 81 | 360 | 5.0 | 10.0 | 0.00 | 0.00 | 0.00 | 26 | 1006.2 |
| 20260903005246 | 82 | 19 | 4.0 | 9.0 | 0.00 | 0.00 | 0.00 | 24 | 1006.2 |
| 20260903004312 | 83 | 15 | 5.0 | 8.0 | 0.00 | 0.00 | 0.00 | 24 | 1006.1 |
| 20260903003253 | 84 | 9 | 6.0 | 11.0 | 0.00 | 0.00 | 0.00 | 23 | 1006.1 |
| 20260903002236 | 83 | 17 | 4.0 | 10.0 | 0.00 | 0.00 | 0.00 | 23 | 1006.2 |
| 20260903001239 | 83 | 15 | 5.0 | 9.0 | 0.00 | 0.00 | 0.00 | 23 | 1006.1 |
| 20260903000235 | 84 | 13 | 7.0 | 10.0 | 0.00 | 0.00 | 0.00 | 22 | 1006.1 |
| 20260902235235 | 85 | 24 | 5.0 | 9.0 | 0.00 | 0.00 | 0.00 | 21 | 1006.1 |
| 20260902234243 | 87 | 53 | 7.0 | 14.0 | 0.00 | 0.00 | 0.00 | 20 | 1006.1 |
| 20260902233249 | 88 | 65 | 7.0 | 16.0 | 0.00 | 0.00 | 0.00 | 20 | 1006.1 |
| 20260902232234 | 87 | 5 | 4.0 | 12.0 | 0.00 | 0.00 | 0.00 | 21 | 1006.1 |
| 20260902231237 | 87 | 80 | 4.0 | 11.0 | 0.00 | 0.00 | 0.00 | 20 | 1006.2 |
| 20260902230246 | 88 | 87 | 5.0 | 15.0 | 0.00 | 0.00 | 0.00 | 20 | 1006.2 |
| 20260902225249 | 89 | 67 | 7.0 | 18.0 | 0.00 | 0.00 | 0.00 | 18 | 1006.2 |
| 20260902224258 | 90 | 156 | 5.0 | 14.0 | 0.00 | 0.00 | 0.00 | 17 | 1006.2 |
| 20260902223251 | 90 | 62 | 4.0 | 15.0 | 0.00 | 0.00 | 0.00 | 17 | 1006.2 |
| 20260902222249 | 89 | 150 | 8.0 | 12.0 | 0.00 | 0.00 | 0.00 | 18 | 1006.5 |
| 20260902221255 | 89 | 70 | 6.0 | 14.0 | 0.00 | 0.00 | 0.00 | 19 | 1006.7 |
| 20260902220239 | 90 | 127 | 7.0 | 14.0 | 0.00 | 0.00 | 0.00 | 18 | 1006.7 |
| 20260902215248 | 90 | 138 | 7.0 | 16.0 | 0.00 | 0.00 | 0.00 | 17 | 1006.8 |
| 20260902214248 | 90 | 66 | 8.0 | 17.0 | 0.00 | 0.00 | 0.00 | 17 | 1006.9 |
| 20260902213253 | 90 | 150 | 5.0 | 19.0 | 0.00 | 0.00 | 0.00 | 17 | 1006.9 |
| 20260902212255 | 89 | 103 | 9.0 | 19.0 | 0.00 | 0.00 | 0.00 | 17 | 1007.2 |
| 20260902211251 | 89 | 113 | 8.0 | 16.0 | 0.00 | 0.00 | 0.00 | 18 | 1007.5 |
| 20260902210256 | 88 | 116 | 6.0 | 15.0 | 0.00 | 0.00 | 0.00 | 19 | 1007.5 |
| 20260902205248 | 88 | 79 | 6.0 | 12.0 | 0.00 | 0.00 | 0.00 | 18 | 1007.7 |
| 20260902204307 | 89 | 76 | 8.0 | 11.0 | 0.00 | 0.00 | 0.00 | 19 | 1008.0 |
| 20260902203250 | 88 | 82 | 6.0 | 15.0 | 0.00 | 0.00 | 0.00 | 19 | 1008.0 |
| 20260902202251 | 88 | 80 | 5.0 | 13.0 | 0.00 | 0.00 | 0.00 | 18 | 1008.1 |
| 20260902201253 | 88 | 107 | 4.0 | 15.0 | 0.00 | 0.00 | 0.00 | 18 | 1008.2 |
| 20260902200240 | 88 | 51 | 4.0 | 9.0 | 0.00 | 0.00 | 0.00 | 18 | 1008.2 |
| 20260902195245 | 87 | 78 | 6.0 | 13.0 | 0.00 | 0.00 | 0.00 | 18 | 1008.5 |
| 20260902194312 | 87 | 25 | 3.0 | 10.0 | 0.00 | 0.00 | 0.00 | 19 | 1008.6 |
| 20260902193235 | 87 | 57 | 8.0 | 14.0 | 0.00 | 0.00 | 0.00 | 20 | 1008.6 |
| 20260902192242 | 86 | 29 | 7.0 | 14.0 | 0.00 | 0.00 | 0.00 | 18 | 1008.8 |
| 20260902191242 | 86 | 9 | 3.0 | 12.0 | 0.00 | 0.00 | 0.00 | 18 | 1009.2 |
| 20260902190311 | 86 | 15 | 4.0 | 11.0 | 0.00 | 0.00 | 0.00 | 18 | 1009.2 |
| 20260902185252 | 86 | 96 | 6.0 | 11.0 | 0.00 | 0.00 | 0.00 | 21 | 1009.3 |
| 20260902184309 | 85 | 74 | 5.0 | 13.0 | 0.00 | 0.00 | 0.00 | 19 | 1009.4 |
| 20260902183250 | 84 | 5 | 6.0 | 13.0 | 0.00 | 0.00 | 0.00 | 21 | 1009.4 |
| 20260902182238 | 84 | 45 | 6.0 | 12.0 | 0.00 | 0.00 | 0.00 | 20 | 1009.9 |
| 20260902181243 | 85 | 84 | 6.0 | 11.0 | 0.00 | 0.00 | 0.00 | 21 | 1010.0 |
| 20260902180250 | 84 | 70 | 3.0 | 11.0 | 0.00 | 0.00 | 0.00 | 21 | 1010.0 |
| 20260902175254 | 83 | 38 | 6.0 | 12.0 | 0.00 | 0.00 | 0.00 | 21 | 1010.3 |
| 20260902174236 | 83 | 5 | 6.0 | 14.0 | 0.00 | 0.00 | 0.00 | 22 | 1010.5 |
| 20260902173259 | 83 | 19 | 7.0 | 12.0 | 0.00 | 0.00 | 0.00 | 23 | 1010.5 |
| 20260902172244 | 83 | 48 | 4.0 | 13.0 | 0.00 | 0.00 | 0.00 | 21 | 1010.5 |
| 20260902171248 | 82 | 294 | 5.0 | 12.0 | 0.00 | 0.00 | 0.00 | 22 | 1010.6 |
| 20260902170137 | 82 | 46 | 5.0 | 9.0 | 0.00 | 0.00 | 0.00 | 22 | 1010.6 |
| 20260902165200 | 81 | 48 | 5.0 | 9.0 | 0.00 | 0.00 | 0.00 | 24 | 1010.6 |
| 20260902164146 | 80 | 14 | 1.0 | 7.0 | 0.00 | 0.00 | 0.00 | 23 | 1010.6 |
| 20260902163151 | 79 | 9 | 5.0 | 11.0 | 0.00 | 0.00 | 0.00 | 23 | 1010.6 |
| 20260902162136 | 79 | 82 | 5.0 | 11.0 | 0.00 | 0.00 | 0.00 | 25 | 1010.7 |
| 20260902161137 | 79 | 39 | 2.0 | 6.0 | 0.00 | 0.00 | 0.00 | 27 | 1010.8 |
| 20260902160156 | 78 | 52 | 4.0 | 9.0 | 0.00 | 0.00 | 0.00 | 27 | 1010.8 |
| 20260902155138 | 78 | 76 | 4.0 | 9.0 | 0.00 | 0.00 | 0.00 | 27 | 1010.9 |
| 20260902154149 | 76 | 50 | 3.0 | 6.0 | 0.00 | 0.00 | 0.00 | 25 | 1011.1 |
| 20260902153147 | 74 | 187 | 0.0 | 2.0 | 0.00 | 0.00 | 0.00 | 26 | 1011.1 |
| 20260902152151 | 72 | 187 | 0.0 | 3.0 | 0.00 | 0.00 | 0.00 | 25 | 1011.1 |
| 20260902151140 | 72 | 187 | 1.0 | 4.0 | 0.00 | 0.00 | 0.00 | 27 | 1011.1 |
| 20260902150150 | 71 | 187 | 0.0 | 5.0 | 0.00 | 0.00 | 0.00 | 29 | 1011.1 |
| 20260902145148 | 70 | 188 | 2.0 | 7.0 | 0.00 | 0.00 | 0.00 | 32 | 1011.1 |
| 20260902144154 | 69 | 189 | 4.0 | 7.0 | 0.00 | 0.00 | 0.00 | 32 | 1011.1 |
| 20260902143139 | 68 | 189 | 2.0 | 9.0 | 0.00 | 0.00 | 0.00 | 34 | 1011.1 |
| 20260902142143 | 67 | 183 | 4.0 | 8.0 | 0.00 | 0.00 | 0.00 | 35 | 1010.9 |
| 20260902141206 | 67 | 208 | 4.0 | 8.0 | 0.00 | 0.00 | 0.00 | 37 | 1010.9 |
| 20260902140138 | 66 | 197 | 6.0 | 12.0 | 0.00 | 0.00 | 0.00 | 38 | 1010.9 |
| 20260902135139 | 64 | 178 | 5.0 | 9.0 | 0.00 | 0.00 | 0.00 | 42 | 1010.8 |
| 20260902134152 | 64 | 179 | 6.0 | 11.0 | 0.00 | 0.00 | 0.00 | 43 | 1010.9 |
| 20260902133136 | 64 | 166 | 8.0 | 11.0 | 0.00 | 0.00 | 0.00 | 43 | 1010.9 |
| 20260902132142 | 64 | 191 | 9.0 | 18.0 | 0.00 | 0.00 | 0.00 | 43 | 1010.6 |
| 20260902131201 | 63 | 187 | 7.0 | 10.0 | 0.00 | 0.00 | 0.00 | 46 | 1010.5 |
| 20260902130145 | 62 | 165 | 5.0 | 7.0 | 0.00 | 0.00 | 0.00 | 46 | 1010.5 |
| 20260902125150 | 62 | 192 | 6.0 | 8.0 | 0.00 | 0.00 | 0.00 | 47 | 1010.5 |
| 20260902124151 | 62 | 219 | 7.0 | 10.0 | 0.00 | 0.00 | 0.00 | 47 | 1010.2 |
| 20260902123158 | 62 | 194 | 6.0 | 9.0 | 0.00 | 0.00 | 0.00 | 47 | 1010.2 |
| 20260902122143 | 63 | 200 | 7.0 | 10.0 | 0.00 | 0.00 | 0.00 | 47 | 1010.1 |
| 20260902121144 | 61 | 208 | 6.0 | 8.0 | 0.00 | 0.00 | 0.00 | 50 | 1010.0 |
| 20260902120150 | 59 | 166 | 4.0 | 7.0 | 0.00 | 0.00 | 0.00 | 57 | 1010.0 |
| 20260902115153 | 58 | 166 | 5.0 | 7.0 | 0.00 | 0.00 | 0.00 | 59 | 1009.9 |
| 20260902114137 | 58 | 169 | 5.0 | 8.0 | 0.00 | 0.00 | 0.00 | 59 | 1009.9 |
| 20260902113203 | 59 | 167 | 5.0 | 6.0 | 0.00 | 0.00 | 0.00 | 57 | 1009.9 |
| 20260902112210 | 60 | 167 | 4.0 | 6.0 | 0.00 | 0.00 | 0.00 | 56 | 1009.9 |
| 20260902111152 | 60 | 167 | 5.0 | 8.0 | 0.00 | 0.00 | 0.00 | 55 | 1009.9 |
| 20260902110154 | 61 | 162 | 4.0 | 7.0 | 0.00 | 0.00 | 0.00 | 54 | 1009.9 |
| 20260902105158 | 63 | 161 | 4.0 | 8.0 | 0.00 | 0.00 | 0.00 | 49 | 1009.9 |
| 20260902104137 | 64 | 173 | 5.0 | 8.0 | 0.00 | 0.00 | 0.00 | 47 | 1009.7 |
| 20260902103144 | 64 | 182 | 5.0 | 7.0 | 0.00 | 0.00 | 0.00 | 46 | 1009.7 |
| 20260902102147 | 64 | 188 | 5.0 | 7.0 | 0.00 | 0.00 | 0.00 | 46 | 1009.5 |
| 20260902101149 | 64 | 192 | 5.0 | 7.0 | 0.00 | 0.00 | 0.00 | 46 | 1009.8 |
| 20260902100211 | 64 | 199 | 3.0 | 7.0 | 0.00 | 0.00 | 0.00 | 46 | 1009.8 |
| 20260902095150 | 64 | 200 | 5.0 | 7.0 | 0.00 | 0.00 | 0.00 | 46 | 1009.9 |
| 20260902094155 | 63 | 194 | 6.0 | 8.0 | 0.00 | 0.00 | 0.00 | 48 | 1009.9 |
| 20260902093142 | 63 | 167 | 4.0 | 6.0 | 0.00 | 0.00 | 0.00 | 50 | 1009.9 |
| 20260902092146 | 62 | 167 | 4.0 | 5.0 | 0.00 | 0.00 | 0.00 | 52 | 1009.9 |
| 20260902091149 | 62 | 167 | 2.0 | 4.0 | 0.00 | 0.00 | 0.00 | 51 | 1009.9 |
| 20260902090155 | 63 | 166 | 0.0 | 4.0 | 0.00 | 0.00 | 0.00 | 49 | 1009.9 |
| 20260902085139 | 64 | 166 | 1.0 | 6.0 | 0.00 | 0.00 | 0.00 | 47 | 1009.8 |
| 20260902084202 | 64 | 169 | 4.0 | 6.0 | 0.00 | 0.00 | 0.00 | 47 | 1009.8 |
| 20260902083146 | 64 | 174 | 4.0 | 8.0 | 0.00 | 0.00 | 0.00 | 46 | 1009.8 |
| 20260902082153 | 65 | 174 | 6.0 | 8.0 | 0.00 | 0.00 | 0.00 | 46 | 1009.8 |
| 20260902081215 | 65 | 175 | 6.0 | 7.0 | 0.00 | 0.00 | 0.00 | 46 | 1009.8 |
| 20260902080152 | 65 | 172 | 4.0 | 7.0 | 0.00 | 0.00 | 0.00 | 46 | 1009.8 |
| 20260902075141 | 65 | 171 | 5.0 | 7.0 | 0.00 | 0.00 | 0.00 | 45 | 1009.9 |
| 20260902074145 | 64 | 171 | 3.0 | 5.0 | 0.00 | 0.00 | 0.00 | 47 | 1009.9 |
| 20260902073148 | 63 | 171 | 4.0 | 5.0 | 0.00 | 0.00 | 0.00 | 49 | 1009.9 |
| 20260902072154 | 64 | 171 | 3.0 | 5.0 | 0.00 | 0.00 | 0.00 | 47 | 1009.9 |
| 20260902071139 | 65 | 171 | 4.0 | 5.0 | 0.00 | 0.00 | 0.00 | 45 | 1009.9 |
| 20260902070143 | 66 | 171 | 3.0 | 4.0 | 0.00 | 0.00 | 0.00 | 44 | 1009.9 |
| 20260902065148 | 66 | 171 | 3.0 | 6.0 | 0.00 | 0.00 | 0.00 | 44 | 1009.9 |
| 20260902064153 | 66 | 170 | 4.0 | 6.0 | 0.00 | 0.00 | 0.00 | 44 | 1009.9 |
| 20260902063151 | 66 | 170 | 2.0 | 5.0 | 0.00 | 0.00 | 0.00 | 44 | 1009.9 |
| 20260902062153 | 65 | 166 | 3.0 | 5.0 | 0.00 | 0.00 | 0.00 | 45 | 1009.9 |
| 20260902061138 | 65 | 165 | 4.0 | 7.0 | 0.00 | 0.00 | 0.00 | 47 | 1009.9 |
| 20260902060143 | 64 | 173 | 5.0 | 8.0 | 0.00 | 0.00 | 0.00 | 51 | 1009.9 |
| 20260902055208 | 62 | 197 | 3.0 | 5.0 | 0.00 | 0.00 | 0.00 | 57 | 1009.9 |
| 20260902054137 | 63 | 197 | 3.0 | 5.0 | 0.00 | 0.00 | 0.00 | 57 | 1009.8 |
| 20260902053138 | 64 | 197 | 4.0 | 5.0 | 0.00 | 0.00 | 0.00 | 55 | 1009.8 |
| 20260902052201 | 65 | 198 | 4.0 | 6.0 | 0.00 | 0.00 | 0.00 | 54 | 1009.7 |
| 20260902051200 | 68 | 203 | 3.0 | 4.0 | 0.00 | 0.00 | 0.00 | 48 | 1009.7 |
| 20260902050146 | 68 | 204 | 1.0 | 3.0 | 0.00 | 0.00 | 0.00 | 47 | 1009.7 |
| 20260902045147 | 68 | 204 | 2.0 | 5.0 | 0.00 | 0.00 | 0.00 | 48 | 1009.8 |
| 20260902044155 | 69 | 200 | 2.0 | 5.0 | 0.00 | 0.00 | 0.00 | 48 | 1009.9 |